GOES-R

Last updated on Sun Dec 11 2016 00:16:34 GMT+0000 (Coordinated Universal Time)

1 41866U 16071A 16345.02845630 -.00000179 00000-0 00000+0 0 9994 2 41866 0.0319 201.2779 0000332 94.1395 64.5993 1.00271344 252
UTC large
Height (km)
Speed (km/s)
/
Latitude / Longitude
Inclination (degrees)
Orbital Period (minutes)
Azimuth
Elevation
Range (km)
Doppler Factor

Next 0 passes for location: London (51.5072 / 0.1276)

Sorry there are no passes over London.